Location: *
(40.4270°N, 9.4940°E)
Time: 22:01:05
(UTC+02:00)

Okean 2 - Visible Passes

Search period start: 23 June 2018 00:00
Search period end: 03 July 2018 00:00
Orbit: 560 x 578 km, 82.5° (Epoch: 23 June)

Date Brightness Start Highest point End Pass type
(mag) Time Alt. Az. Time Alt. Az. Time Alt. Az.
28 Jun 6.6 04:35:57 10° NE 04:37:43 12° ENE 04:39:28 10° E visible
29 Jun 6.3 04:37:03 10° NNE 04:39:36 16° ENE 04:42:06 10° ESE visible
30 Jun 6.2 04:38:24 10° NNE 04:41:26 20° ENE 04:44:28 10° ESE visible
01 Jul 5.7 04:39:52 10° NNE 04:43:17 25° ENE 04:46:41 10° SE visible
02 Jul 5.3 04:41:25 10° NNE 04:45:06 32° ENE 04:48:46 10° SE visible
